TimeEDT,TemperatureF,Dew PointF,Humidity,Sea Level PressureIn,VisibilityMPH,Wind Direction,Wind SpeedMPH,Gust SpeedMPH,PrecipitationIn,Events,Conditions,WindDirDegrees,DateUTC
12:15 AM,56.7,56.5,99,30.18,5.0,Calm,Calm,-,N/A,,Clear,0,2013-10-02 04:15:00
12:35 AM,56.7,56.7,100,30.19,7.0,Calm,Calm,-,N/A,,Clear,0,2013-10-02 04:35:00
12:55 AM,55.4,55.4,100,30.18,7.0,Calm,Calm,-,N/A,,Clear,0,2013-10-02 04:55:00
1:15 AM,54.7,54.7,100,30.18,7.0,Calm,Calm,-,N/A,,Clear,0,2013-10-02 05:15:00
1:35 AM,55.2,55.2,100,30.19,5.0,Calm,Calm,-,N/A,,Clear,0,2013-10-02 05:35:00
1:55 AM,55.8,55.8,100,30.19,7.0,Calm,Calm,-,N/A,,Clear,0,2013-10-02 05:55:00
2:15 AM,53.8,53.8,100,30.19,7.0,Calm,Calm,-,N/A,,Clear,0,2013-10-02 06:15:00
2:35 AM,53.8,53.8,100,30.18,7.0,Calm,Calm,-,N/A,,Clear,0,2013-10-02 06:35:00
2:55 AM,53.2,53.2,100,30.18,7.0,Calm,Calm,-,N/A,,Clear,0,2013-10-02 06:55:00
3:15 AM,52.9,52.9,100,30.18,7.0,Calm,Calm,-,N/A,,Clear,0,2013-10-02 07:15:00
3:35 AM,52.5,52.5,100,30.17,5.0,Calm,Calm,-,N/A,,Clear,0,2013-10-02 07:35:00
3:55 AM,52.7,52.7,100,30.17,10.0,Calm,Calm,-,N/A,,Clear,0,2013-10-02 07:55:00
4:15 AM,51.8,51.8,100,30.17,7.0,Calm,Calm,-,N/A,,Clear,0,2013-10-02 08:15:00
4:35 AM,51.3,51.3,100,30.17,2.0,Calm,Calm,-,N/A,,Clear,0,2013-10-02 08:35:00
4:55 AM,50.9,50.9,100,30.18,3.0,Calm,Calm,-,N/A,,Clear,0,2013-10-02 08:55:00
5:15 AM,51.1,51.1,100,30.17,7.0,Calm,Calm,-,N/A,,Clear,0,2013-10-02 09:15:00
5:35 AM,50.5,50.5,100,30.18,7.0,Calm,Calm,-,N/A,,Clear,0,2013-10-02 09:35:00
5:55 AM,52.0,52.0,100,30.18,10.0,Calm,Calm,-,N/A,,Clear,0,2013-10-02 09:55:00
6:15 AM,50.4,50.4,100,30.18,7.0,Calm,Calm,-,N/A,,Clear,0,2013-10-02 10:15:00
6:35 AM,49.6,49.6,100,30.19,7.0,Calm,Calm,-,N/A,,Clear,0,2013-10-02 10:35:00
6:55 AM,49.1,49.1,100,30.19,4.0,Calm,Calm,-,N/A,,Clear,0,2013-10-02 10:55:00
7:15 AM,48.9,48.9,100,30.20,0.8,Calm,Calm,-,N/A,,Mist,0,2013-10-02 11:15:00
7:35 AM,49.6,49.6,100,30.21,7.0,Calm,Calm,-,N/A,,Clear,0,2013-10-02 11:35:00
7:55 AM,50.2,50.2,100,30.21,7.0,Calm,Calm,-,N/A,,Clear,0,2013-10-02 11:55:00
8:15 AM,53.4,53.4,100,30.22,5.0,Calm,Calm,-,N/A,,Clear,0,2013-10-02 12:15:00
8:35 AM,57.4,57.4,100,30.22,7.0,Calm,Calm,-,N/A,,Clear,0,2013-10-02 12:35:00
8:55 AM,59.9,58.8,96,30.23,10.0,Calm,Calm,-,N/A,,Clear,0,2013-10-02 12:55:00
9:15 AM,61.3,58.1,89,30.24,10.0,Calm,Calm,-,N/A,,Clear,0,2013-10-02 13:15:00
9:35 AM,62.6,58.1,85,30.24,10.0,Calm,Calm,-,N/A,,Clear,0,2013-10-02 13:35:00
9:55 AM,64.6,58.3,80,30.24,10.0,Calm,Calm,-,N/A,,Clear,0,2013-10-02 13:55:00
10:15 AM,67.3,59.2,75,30.24,10.0,Calm,Calm,-,N/A,,Clear,0,2013-10-02 14:15:00
10:35 AM,69.4,59.4,70,30.24,10.0,Calm,Calm,-,N/A,,Clear,0,2013-10-02 14:35:00
10:55 AM,71.8,60.4,67,30.24,10.0,Calm,Calm,-,N/A,,Clear,0,2013-10-02 14:55:00
11:15 AM,72.9,59.7,63,30.23,10.0,SSE,3.5,-,N/A,,Clear,160,2013-10-02 15:15:00
11:35 AM,74.3,58.6,58,30.23,10.0,Calm,Calm,-,N/A,,Clear,0,2013-10-02 15:35:00
11:55 AM,75.6,57.7,54,30.22,10.0,Calm,Calm,-,N/A,,Clear,0,2013-10-02 15:55:00
12:15 PM,76.8,56.7,50,30.21,10.0,Calm,Calm,-,N/A,,Clear,0,2013-10-02 16:15:00
12:35 PM,78.4,56.7,47,30.21,10.0,Calm,Calm,-,N/A,,Clear,0,2013-10-02 16:35:00
12:55 PM,78.3,55.8,46,30.20,10.0,Calm,Calm,-,N/A,,Clear,0,2013-10-02 16:55:00
1:15 PM,79.2,55.0,43,30.20,10.0,NNE,3.5,-,N/A,,Clear,20,2013-10-02 17:15:00
1:35 PM,79.9,54.5,41,30.19,10.0,WSW,4.6,-,N/A,,Clear,250,2013-10-02 17:35:00
1:55 PM,80.2,52.5,38,30.18,10.0,SW,3.5,-,N/A,,Clear,220,2013-10-02 17:55:00
2:15 PM,81.1,52.9,37,30.17,10.0,SW,5.8,-,N/A,,Clear,220,2013-10-02 18:15:00
2:35 PM,81.5,53.8,38,30.17,10.0,Calm,Calm,-,N/A,,Clear,0,2013-10-02 18:35:00
2:55 PM,81.1,53.2,38,30.16,10.0,Calm,Calm,-,N/A,,Clear,0,2013-10-02 18:55:00
3:15 PM,81.9,52.9,37,30.16,10.0,Calm,Calm,-,N/A,,Clear,0,2013-10-02 19:15:00
3:35 PM,82.6,53.1,36,30.15,10.0,Calm,Calm,-,N/A,,Clear,0,2013-10-02 19:35:00
3:55 PM,82.6,53.1,36,30.15,10.0,South,3.5,-,N/A,,Clear,170,2013-10-02 19:55:00
4:15 PM,82.2,54.1,38,30.14,10.0,SSE,3.5,-,N/A,,Scattered Clouds,150,2013-10-02 20:15:00
4:35 PM,82.6,53.6,37,30.14,10.0,Calm,Calm,-,N/A,,Mostly Cloudy,0,2013-10-02 20:35:00
4:55 PM,82.6,54.3,38,30.14,10.0,Calm,Calm,-,N/A,,Scattered Clouds,0,2013-10-02 20:55:00
5:15 PM,80.6,53.2,39,30.14,10.0,Calm,Calm,-,N/A,,Scattered Clouds,0,2013-10-02 21:15:00
5:35 PM,80.1,53.6,40,30.14,10.0,Calm,Calm,-,N/A,,Scattered Clouds,0,2013-10-02 21:35:00
5:55 PM,78.8,58.3,49,30.15,10.0,Calm,Calm,-,N/A,,Clear,0,2013-10-02 21:55:00
6:15 PM,76.8,66.6,70,30.15,10.0,Calm,Calm,-,N/A,,Clear,0,2013-10-02 22:15:00
6:35 PM,73.0,68.0,84,30.15,10.0,Calm,Calm,-,N/A,,Clear,0,2013-10-02 22:35:00
6:55 PM,71.1,67.6,89,30.15,10.0,Calm,Calm,-,N/A,,Clear,0,2013-10-02 22:55:00
7:15 PM,67.8,65.8,93,30.16,10.0,Calm,Calm,-,N/A,,Clear,0,2013-10-02 23:15:00
7:35 PM,66.2,63.9,92,30.16,10.0,Calm,Calm,-,N/A,,Clear,0,2013-10-02 23:35:00
7:55 PM,64.4,63.0,95,30.16,10.0,Calm,Calm,-,N/A,,Clear,0,2013-10-02 23:55:00
8:15 PM,63.7,61.7,93,30.17,10.0,Calm,Calm,-,N/A,,Scattered Clouds,0,2013-10-03 00:15:00
8:35 PM,63.0,61.7,96,30.17,10.0,Calm,Calm,-,N/A,,Scattered Clouds,0,2013-10-03 00:35:00
8:55 PM,62.6,61.3,96,30.17,10.0,Calm,Calm,-,N/A,,Clear,0,2013-10-03 00:55:00
9:15 PM,62.2,61.7,98,30.17,10.0,Calm,Calm,-,N/A,,Clear,0,2013-10-03 01:15:00
9:35 PM,61.0,60.4,98,30.18,10.0,Calm,Calm,-,N/A,,Clear,0,2013-10-03 01:35:00
9:55 PM,60.8,60.4,99,30.18,10.0,Calm,Calm,-,N/A,,Clear,0,2013-10-03 01:55:00
10:15 PM,60.8,60.3,98,30.18,10.0,Calm,Calm,-,N/A,,Clear,0,2013-10-03 02:15:00
10:35 PM,60.8,60.4,99,30.19,10.0,Calm,Calm,-,N/A,,Clear,0,2013-10-03 02:35:00
10:55 PM,60.8,60.8,100,30.19,10.0,Calm,Calm,-,N/A,,Clear,0,2013-10-03 02:55:00
11:15 PM,61.0,60.8,99,30.19,10.0,Calm,Calm,-,N/A,,Clear,0,2013-10-03 03:15:00
11:35 PM,59.5,59.4,99,30.20,10.0,Calm,Calm,-,N/A,,Clear,0,2013-10-03 03:35:00
11:55 PM,58.6,58.5,99,30.20,4.0,Calm,Calm,-,N/A,,Clear,0,2013-10-03 03:55:00